Location: Luz Observatory
(34.5000°N, 117.2833°W)
Time: 04:43:29
(UTC-08:00)

Hubble Space Telescope - Visible Passes

Search period start: 02 March 2015 00:00
Search period end: 12 March 2015 01:00
Orbit: 543 x 548 km, 28.5° (Epoch: 01 March)

Date Brightness Start Highest point End Pass type
(mag) Time Alt. Az. Time Alt. Az. Time Alt. Az.
02 Mar 2.7 04:03:11 24° SE 04:03:11 24° SE 04:05:13 10° ESE visible
02 Mar 2.1 05:38:46 10° WSW 05:42:23 28° S 05:45:59 10° SE visible
03 Mar 3.0 03:55:27 20° SE 03:55:27 20° SE 03:56:59 10° ESE visible
03 Mar 2.3 05:30:57 11° WSW 05:34:07 25° SSW 05:37:34 10° SE visible
04 Mar 3.4 03:47:45 16° SE 03:47:45 16° SE 03:48:43 10° ESE visible
04 Mar 2.4 05:23:14 13° WSW 05:25:51 22° SSW 05:29:03 10° SE visible
05 Mar 3.7 03:40:04 12° ESE 03:40:04 12° ESE 03:40:25 10° ESE visible
05 Mar 2.6 05:15:34 14° SW 05:17:33 18° SSW 05:20:26 10° SSE visible
06 Mar 2.8 05:07:56 13° SW 05:09:15 15° SSW 05:11:39 10° SSE visible
07 Mar 3.0 05:00:22 12° SSW 05:00:55 12° SSW 05:02:30 10° S visible
